User: anonymous   Login
Location: Unspecified
(0.0000°N, 0.0000°E)
Time: 08:53:15
(UTC+00:00)
Language:

STARLINK-6169 - Orbit

View from above orbital plane
View from above orbital plane
View from above satellite
View from above satellite

Ground track
Ground track

The orbit is defined by the following mean orbital elements,

1 56889U          26145.32155925 +.00000000 +00000-0 +92460-4 0 00004
2 56889  43.0026  12.1215 0001368 273.9157  86.1538 15.27591758    08
Epoch (UTC): 25 May 2026 07:43:02
Eccentricity: 0.0001368
inclination: 43.0026°
perigee height: 482 km
apogee height: 484 km
right ascension of ascending node: 12.1215°
argument of perigee: 273.9157°
revolutions per day: 15.27591758
mean anomaly at epoch: 86.1538°

The dashed part of the orbit path shows where the satellite is in the earth's shadow,  

DLR